Regional Weather Roundup
Issued by NWS Cleveland, OH

Home | Current Version | Previous Version | Text Only | Print | Product List | Glossary Off
Versions: 1 2 3 4 5 6 7 8 9 10 11 12 13 14 15 16 17 18 19 20 21 22 23 24 25 26 27 28 29 30 31 32 33 34 35 36 37 38 39 40 41 42 43 44 45 46 47 48 49 50

000
ASUS41 KCLE 281300
RWRCLE
OHIO REGIONAL WEATHER ROUNDUP
NATIONAL WEATHER SERVICE WILMINGTON, OH
900 AM EDT MON JUL 28 2014

NOTE: "FAIR" INDICATES FEW OR NO CLOUDS BELOW 12,000 FEET WITH NO
SIGNIFICANT WEATHER AND/OR OBSTRUCTIONS TO VISIBILITY.

OHZ001>008-015>018-024>027-034-035-043-044-281400-
   NORTHWEST OHIO

CITY           SKY/WX    TMP DP  RH WIND       PRES   REMARKS
DEFIANCE       CLOUDY    66  57  72 N9        29.89R
FINDLAY        CLOUDY    64  60  87 NW10      29.85R
TOLEDO EXPRESS CLOUDY    65  57  75 NW13G21   29.86R
TOLEDO METCALF CLOUDY    66  57  72 NW13      29.85R
LIMA           CLOUDY    64  60  87 NW9       29.88R
$$

OHZ009>014-019>023-028>033-038-089-281400-
   NORTHEAST OHIO

CITY           SKY/WX    TMP DP  RH WIND       PRES   REMARKS
CLE-HOPKINS    CLOUDY    66  61  84 NW17G24   29.75R
CLE-LAKEFRONT  PTSUNNY   68  62  81 NW18G28   29.71R
CUY CO. ARPT   CLOUDY    66  64  94 NW12G22   29.72R
LORAIN-ELYRIA  PTSUNNY   68  61  78 N17       29.77R
ASHTABULA      LGT RAIN  64  61  90 NW8       29.69R
AKRON-CANTON   LGT RAIN  63  58  83 W13       29.74R
WOOSTER        LGT RAIN  61  59  93 W13       29.77R FOG
MANSFIELD      CLOUDY    61  60  97 W9G16     29.81R
YOUNGSTOWN     CLOUDY    62  60  93 W9        29.70R
$$

OHZ042-051>053-060>062-070>072-077>081-281400-
  SOUTHWEST OHIO

CITY           SKY/WX    TMP DP  RH WIND       PRES   REMARKS
CINC-COVINGTON PTSUNNY   65  60  84 W8        29.92R
CINC-LUNKEN    CLOUDY    66  59  78 VRB6      29.91R
HAMILTON       CLOUDY    66  60  81 NW8       29.91R
DAYTON         NOT AVBL
WRIGHT-PAT AFB CLOUDY    65  60  82 NW10      29.89R HAZE
DAYTON GENERAL CLOUDY    65  59  81 NW12      29.89R
WILMINGTON     CLOUDY    64  58  80 NW8       29.88R
$$

OHZ036-037-039>041-045>050-054>059-063>069-073>076-082>088-281400-
  CENTRAL AND SOUTHEAST OHIO

CITY           SKY/WX    TMP DP  RH WIND       PRES   REMARKS
COLUMBUS       CLOUDY    66  58  75 W12       29.83R
OSU AIRPORT    CLOUDY    64  58  80 NW12      29.84R
BOLTON FIELD   CLOUDY    63  59  88 NW9       29.86R
RICKENBACK AFB NOT AVBL
NEWARK         CLOUDY    65  58  78 W12       29.82R
MARION         CLOUDY    62  59  90 NW9       29.84R
LANCASTER      CLOUDY    64  57  78 NW8G17    29.84R
ZANESVILLE     CLOUDY    64  56  75 W13       29.81R
NEW PHILLY     PTSUNNY   64  59  83 W8        29.78R
$$


USA.gov is the U.S. government's official web portal to all federal, state and local government web resources and services.